Theta_e
335 331 331 342 346 345 347 349 349 348 348 348 348 348 348 349 348 348 348 348 348 347 346 346 345 345 344 344 344 342 341 343 342 343 342 342 343 343 344 344 344 345 346 347 348 348 348 348 347 346 345 345 346 346 346 345 345 345 345 345 346 346 346 346 345 346 345 345 345 345 345 344 344 344 344 344 345 344 341 341 341 339 338 341 343
334 332 331 333 346 345 344 344 349 348 347 347 348 348 348 348 348 348 347 347 347 346 346 345 344 344 344 342 342 342 342 342 342 341 340 341 341 341 342 342 342 342 344 344 346 346 347 346 347 346 346 346 345 345 344 345 344 344 344 344 344 345 345 344 343 343 343 344 345 344 343 344 344 344 344 343 343 344 341 341 341 337 336 342 341
334 333 332 335 345 348 347 343 343 345 347 348 348 348 349 349 348 347 347 347 346 346 345 345 344 343 343 342 342 341 341 340 340 341 340 340 341 341 341 341 341 341 341 343 344 345 345 346 347 346 346 345 344 344 345 345 344 344 344 344 344 343 343 342 342 342 342 341 341 341 341 344 343 342 342 343 343 342 340 341 341 341 337 340 339
331 333 332 336 344 345 343 344 344 347 348 348 348 348 348 348 348 347 347 347 346 346 346 345 344 343 343 341 340 340 340 340 339 339 340 340 340 340 340 340 341 341 340 341 341 341 343 344 344 345 344 344 344 345 344 344 344 344 344 344 343 343 343 342 342 341 341 339 339 338 336 334 338 342 343 342 342 341 339 339 339 340 340 339 338
336 335 332 333 335 343 347 348 347 347 347 347 348 348 348 348 348 347 347 347 345 344 344 344 344 342 341 341 340 338 339 339 339 340 341 340 340 339 339 339 340 340 340 340 342 342 343 344 344 345 345 343 343 344 344 344 343 343 342 343 342 341 341 341 340 339 339 338 337 334 330 331 334 340 342 342 340 338 338 337 337 337 336 336 338
335 333 332 332 334 337 345 346 346 346 347 347 348 348 348 347 347 347 346 346 344 343 343 343 342 341 341 341 340 341 342 342 341 340 340 341 340 340 340 340 339 339 339 340 340 341 341 343 343 344 344 343 343 342 343 343 343 343 342 342 341 340 340 339 338 337 336 334 333 329 328 329 331 333 340 341 340 338 337 337 337 335 334 333 333
334 331 332 333 333 337 343 347 346 346 346 347 347 347 347 347 346 346 345 345 344 342 342 342 342 343 340 338 338 338 338 338 339 338 339 340 339 339 340 340 340 340 339 339 340 340 341 342 342 343 344 343 342 342 343 343 343 342 340 340 340 339 339 338 337 336 334 329 325 325 326 327 328 330 338 338 338 336 334 335 335 334 334 332 331
332 332 332 332 333 339 345 347 346 346 346 347 347 347 347 346 346 345 345 344 344 342 340 343 342 340 339 338 336 341 342 341 340 340 339 340 339 339 339 339 340 338 339 338 339 339 340 342 342 343 342 342 342 342 341 342 341 340 340 339 339 339 338 337 336 335 333 325 324 324 324 325 326 327 336 337 336 334 332 331 331 331 332 332 330
332 332 333 331 334 341 343 346 346 346 347 347 346 346 346 346 345 344 344 343 343 342 341 341 341 338 337 340 340 340 340 340 338 337 337 336 337 337 337 337 338 337 338 338 337 338 339 341 342 342 343 342 342 341 342 342 342 340 339 338 338 337 336 336 334 331 326 323 323 324 324 323 324 325 334 335 334 333 333 331 331 330 330 331 330
332 331 331 331 332 340 343 346 346 346 346 347 346 346 345 345 344 343 343 342 342 341 339 339 339 338 339 339 338 339 338 339 337 337 337 338 338 337 337 337 337 338 338 338 338 338 338 340 341 341 342 343 341 341 340 341 341 339 339 338 337 336 335 334 331 329 321 320 321 322 328 335 323 324 332 334 334 331 329 331 332 332 332 330 328
332 331 331 331 332 339 345 346 347 346 346 346 346 346 344 344 343 343 342 341 340 340 339 338 337 337 339 339 339 339 341 341 341 340 339 339 339 339 339 339 339 339 338 338 337 338 338 339 340 341 341 342 340 340 339 339 339 339 338 337 336 335 335 332 328 321 321 320 321 320 326 333 322 325 333 333 332 330 333 330 328 329 329 329 328
332 331 331 331 341 340 345 345 346 346 346 346 346 345 344 344 343 342 341 341 339 337 338 338 338 338 337 338 339 340 340 340 339 339 340 340 339 339 338 338 338 338 338 338 339 339 339 339 339 341 341 341 339 339 339 338 339 338 337 336 335 334 333 331 323 321 319 319 321 322 320 322 322 328 332 332 331 330 328 328 328 329 328 328 328
332 332 330 331 333 338 343 344 344 346 345 345 345 345 344 344 343 342 341 340 339 338 338 338 338 337 340 341 341 342 341 340 338 338 338 337 338 338 337 337 337 336 337 337 337 337 337 338 339 340 341 340 339 338 338 338 338 337 336 335 334 333 331 329 320 320 320 319 321 319 318 320 323 332 332 332 330 328 328 328 328 327 327 328 327
333 332 331 332 332 341 337 341 344 346 346 345 345 345 343 342 342 341 339 338 337 338 338 336 335 338 338 340 340 341 340 339 337 335 335 336 337 337 338 337 335 335 335 336 336 336 336 337 339 340 340 338 338 338 337 337 337 336 335 334 333 332 329 327 326 318 319 319 320 320 317 321 322 330 332 331 330 329 329 327 327 327 327 327 326
334 334 330 331 331 333 338 337 340 342 343 344 344 344 343 342 341 339 338 337 336 336 335 334 334 335 338 339 340 341 342 341 339 339 339 338 336 336 334 333 336 337 337 337 337 337 337 337 338 339 338 337 337 337 337 336 336 335 335 333 331 330 327 319 320 316 318 321 318 319 316 317 334 331 331 330 330 328 327 326 326 326 326 326 326
337 334 331 331 329 330 332 337 333 335 340 342 342 342 343 341 341 338 337 337 337 337 337 342 342 335 337 340 340 340 339 339 340 340 338 336 336 335 334 334 336 336 336 336 335 336 337 337 337 337 337 336 336 336 336 336 335 335 334 333 331 329 326 322 316 315 315 318 318 318 316 318 333 331 330 330 329 328 327 327 327 326 326 326 325
336 333 331 330 328 329 330 330 331 331 332 335 337 338 340 341 341 341 341 339 338 337 338 340 341 341 340 341 341 340 340 339 339 338 338 337 337 336 336 336 336 336 336 336 336 336 336 336 336 336 336 336 335 336 335 335 335 333 332 330 329 328 325 323 317 314 315 318 319 317 318 318 332 331 332 331 330 328 327 329 327 326 325 325 325
336 334 333 332 329 328 328 328 330 331 331 331 332 336 338 339 339 339 339 339 340 339 339 339 339 339 339 338 338 339 340 341 340 339 339 337 336 335 335 335 335 335 335 335 335 336 335 335 336 336 336 336 335 335 335 334 334 332 330 328 326 326 325 324 315 315 315 323 316 319 318 326 333 331 331 330 331 330 329 327 327 326 325 325 325
336 335 336 334 331 328 327 326 327 328 327 327 327 331 333 335 336 336 338 338 339 338 336 335 336 336 334 333 332 332 332 334 337 337 336 335 334 335 335 334 335 335 335 335 334 335 334 335 335 335 335 334 334 333 332 332 332 330 328 325 323 323 322 320 317 316 316 315 317 318 317 329 333 332 332 331 332 332 330 327 327 326 325 325 325
334 334 334 335 333 330 326 325 326 326 325 325 325 325 329 330 332 334 335 335 335 334 332 330 329 327 328 328 327 326 325 325 325 327 331 332 331 328 335 336 335 335 334 334 334 334 334 334 335 335 335 332 330 328 327 329 329 328 326 321 319 320 316 315 315 316 316 315 319 318 322 330 332 331 332 333 333 333 329 327 327 327 326 325 325
332 332 332 334 333 332 328 326 324 324 326 327 327 328 328 328 329 329 330 330 330 330 328 323 322 323 323 323 322 320 319 320 320 321 323 322 324 326 333 335 334 334 334 334 334 334 334 334 334 334 333 329 324 320 319 322 325 325 323 318 314 314 313 313 313 315 316 314 316 316 325 330 332 331 333 333 332 332 330 329 329 329 326 325 326
328 329 330 332 333 332 330 328 327 326 327 327 327 328 328 328 327 325 325 325 324 323 320 318 324 315 320 318 318 319 316 315 319 325 319 321 321 323 327 332 334 333 334 333 334 334 333 333 333 333 330 326 320 313 313 315 317 320 318 313 313 313 312 312 312 313 314 316 316 318 327 330 332 332 333 334 334 334 333 332 331 330 328 328 328
327 328 329 330 331 332 331 330 329 328 328 327 327 326 327 328 326 323 323 323 324 318 317 317 315 315 313 314 316 316 316 317 317 319 317 315 317 321 325 329 332 330 332 332 332 332 333 331 329 327 324 319 314 313 313 313 311 315 312 311 311 312 311 311 313 311 314 314 315 321 326 330 331 332 334 335 335 334 333 332 332 331 330 329 330
327 328 329 331 332 331 331 331 329 328 328 328 327 327 326 326 324 320 322 320 318 317 316 314 313 313 313 313 316 317 317 317 321 323 319 316 316 318 320 321 322 320 320 320 319 321 322 322 320 319 313 312 312 313 312 313 313 310 312 313 311 310 310 309 310 311 312 313 314 321 326 330 332 333 334 334 335 334 333 333 333 332 331 331 331
329 329 330 329 330 331 331 331 330 329 328 328 327 327 326 324 320 320 320 319 318 317 317 315 314 313 312 313 313 315 316 316 317 316 314 314 315 315 315 315 314 317 318 318 314 314 312 312 310 311 310 308 310 310 311 314 312 311 311 310 310 309 309 308 309 309 311 313 314 320 325 329 332 333 334 335 335 334 333 334 334 333 333 333 332
330 328 328 329 329 330 331 331 330 329 329 328 327 328 327 325 321 319 320 319 319 318 317 316 315 314 313 314 314 315 316 316 316 314 312 312 314 314 313 313 313 315 317 317 314 314 313 312 311 312 310 308 308 308 308 308 310 309 310 310 310 310 310 309 310 310 312 312 314 318 322 327 330 331 332 332 333 333 334 333 333 333 334 334 334
330 328 330 330 331 331 331 331 329 329 329 329 328 328 327 327 325 322 321 320 316 318 317 316 317 316 314 314 316 312 313 316 316 314 314 312 314 311 312 311 312 314 318 316 316 314 313 314 313 311 308 309 309 308 307 307 307 309 311 311 311 311 311 310 309 309 311 310 311 315 319 323 326 329 330 331 332 332 332 332 333 334 334 333 334
331 330 330 331 330 330 331 330 329 329 329 329 328 327 328 327 327 324 322 318 318 318 319 319 318 318 316 316 315 315 314 315 315 315 314 313 314 312 310 312 312 312 314 314 314 312 312 312 310 309 310 310 308 311 311 312 312 311 312 314 313 313 312 311 310 311 310 311 311 313 317 321 323 326 329 331 332 332 332 332 332 333 334 334 334
330 331 331 331 331 331 331 329 329 329 329 329 327 327 327 327 326 325 324 321 319 319 318 317 318 318 318 315 314 315 313 312 313 314 311 315 313 311 311 312 310 310 310 312 312 311 310 309 309 310 310 311 311 313 312 313 312 312 312 314 314 314 314 313 311 310 310 311 311 312 315 319 322 324 327 328 331 331 332 332 332 332 334 334 335
331 332 332 332 332 332 330 329 327 328 330 329 327 326 326 326 325 325 326 323 321 319 316 317 318 318 318 316 316 316 316 316 315 311 312 313 311 310 312 311 311 310 312 313 310 310 311 309 309 310 309 311 313 315 312 314 316 315 313 312 313 314 313 312 311 311 311 311 311 312 314 317 319 322 325 327 328 330 331 331 332 332 333 333 333
331 331 332 332 332 331 330 329 327 326 329 328 327 325 325 325 325 324 324 323 321 319 318 318 317 317 319 316 316 315 316 314 314 311 312 312 310 311 311 310 311 312 311 314 310 310 310 310 311 310 311 311 315 315 313 314 315 316 315 314 313 313 313 312 310 310 311 311 311 311 312 314 317 320 322 324 327 328 329 330 331 332 333 333 333
329 330 332 332 331 331 330 329 328 326 328 328 326 323 323 323 322 321 321 321 318 318 317 318 317 318 316 316 315 315 313 313 313 311 311 311 311 311 310 310 313 311 310 311 311 309 309 309 308 309 310 312 314 314 314 313 314 315 313 311 313 312 311 310 309 310 310 311 310 311 311 312 313 316 318 320 323 325 326 328 330 331 331 331 333
329 330 331 331 330 331 331 329 328 326 328 329 328 325 323 323 322 322 321 321 320 318 318 318 319 318 317 317 316 315 315 315 313 313 311 311 311 310 309 311 312 311 310 311 310 309 308 308 311 307 309 312 314 315 315 313 313 312 309 311 310 310 310 309 309 309 309 310 310 310 311 311 310 312 313 316 319 322 323 325 326 327 328 329 330
327 328 329 329 329 329 331 331 328 327 327 328 328 325 323 323 323 323 321 321 319 319 319 319 318 317 318 317 316 316 315 314 314 311 312 312 311 312 311 311 310 310 310 309 311 312 314 313 314 312 314 313 311 312 310 312 311 307 307 309 308 309 309 309 309 309 308 309 309 309 310 310 310 310 310 312 315 317 319 322 324 325 326 327 328
323 322 324 327 327 328 329 331 328 328 326 326 325 325 323 323 323 322 322 322 321 321 320 320 318 319 318 317 317 316 316 317 315 315 314 314 314 315 315 317 315 313 314 314 316 315 314 315 315 315 315 313 310 311 309 310 307 309 310 310 311 311 311 311 310 308 308 308 308 308 309 309 309 309 309 309 310 313 316 320 321 322 323 325 326
322 323 324 324 325 326 327 330 327 327 326 327 326 325 325 324 323 321 323 321 321 321 321 321 320 318 319 319 318 318 318 319 319 319 318 318 318 318 318 317 316 315 316 315 315 316 316 315 314 315 313 312 310 312 308 308 307 310 311 311 312 312 312 312 310 309 309 307 308 308 308 308 308 308 308 308 309 309 313 314 317 319 321 322 323
322 322 323 322 324 325 325 328 327 327 327 326 325 324 324 323 323 323 323 322 322 322 321 320 320 320 321 322 321 321 320 321 321 321 322 321 321 321 320 319 318 318 318 317 316 316 314 313 312 313 313 312 310 309 311 311 312 312 313 312 312 312 312 311 310 309 308 307 307 307 307 307 307 307 307 307 308 308 310 312 314 316 316 317 319
321 321 322 323 324 324 325 327 328 328 328 327 325 325 324 323 322 322 320 322 321 321 321 320 322 323 323 323 322 322 322 323 323 323 323 324 323 320 321 321 320 319 317 315 316 312 311 311 311 311 311 309 308 311 313 313 313 313 314 313 312 311 311 311 310 306 306 307 307 307 307 306 306 307 307 307 307 307 307 309 311 311 311 312 316
321 320 321 322 322 323 323 324 326 326 327 326 325 325 324 323 322 322 322 323 322 321 321 322 325 326 324 324 323 323 323 324 325 324 324 322 320 320 321 322 320 317 314 312 314 312 310 310 310 311 308 307 311 313 314 313 313 313 312 312 311 311 310 309 307 305 305 305 306 306 305 306 305 306 306 306 306 306 306 307 307 307 308 311 314
320 320 319 320 321 321 322 324 325 327 326 326 325 324 323 322 322 320 321 323 325 323 323 325 325 326 326 326 325 325 323 322 322 322 321 320 321 323 323 321 318 317 316 317 319 315 311 310 309 307 309 309 310 312 314 314 313 312 311 311 309 309 309 308 307 304 305 305 306 304 306 305 305 305 306 306 305 305 305 305 304 306 306 307 310
319 319 319 319 320 321 320 322 324 324 325 325 324 324 323 322 321 322 322 324 325 325 325 326 327 327 327 326 325 326 325 324 323 323 323 322 323 322 320 317 314 317 316 317 318 314 310 310 310 310 312 314 317 316 314 312 312 313 313 310 310 309 308 306 304 303 305 306 303 305 303 303 305 305 306 305 304 304 304 305 305 305 305 304 306
317 318 319 320 320 320 321 322 323 324 325 326 325 325 325 325 325 324 321 323 324 324 325 326 327 327 326 326 326 325 324 323 321 322 320 322 323 320 320 320 316 314 314 314 313 311 312 312 313 316 315 316 314 313 316 314 310 309 310 310 305 305 304 303 301 302 307 307 303 301 301 302 304 304 305 304 304 304 305 305 304 304 304 304 304
320 318 320 320 319 320 321 321 323 324 325 325 325 325 324 321 324 319 324 317 319 327 327 327 327 328 328 327 325 325 325 325 325 323 324 322 322 323 321 317 315 314 315 317 315 316 316 316 316 316 316 314 312 311 311 314 312 311 310 304 301 304 303 296 295 303 306 304 299 301 303 302 303 303 303 302 303 304 305 304 303 303 303 303 304
318 318 318 319 320 320 321 321 322 323 324 324 322 325 324 321 320 318 321 322 320 317 323 322 324 325 325 325 326 324 324 325 325 324 321 323 322 319 318 317 316 317 320 319 319 318 317 316 316 314 314 313 313 312 308 310 312 311 307 306 306 305 304 298 306 310 302 302 301 305 300 301 302 301 301 302 303 303 304 303 302 302 303 303 303
318 318 318 319 321 320 321 321 322 322 323 321 322 322 320 318 317 316 317 318 318 319 320 320 323 323 322 322 324 323 324 325 325 323 319 321 322 323 323 323 322 321 320 319 318 318 317 316 316 315 314 313 312 312 311 310 308 311 311 306 304 302 302 306 306 306 303 307 306 305 302 302 303 302 301 302 301 302 302 301 302 302 302 302 302
317 318 319 320 320 320 320 320 321 321 323 322 322 321 322 323 321 322 320 319 321 320 322 321 318 320 324 322 322 322 324 323 322 324 325 322 323 323 322 321 320 319 319 319 318 317 316 315 315 315 314 314 313 310 310 308 307 308 310 311 309 306 304 305 304 299 306 308 306 304 305 304 300 301 301 300 300 302 301 301 301 302 302 302 302
316 317 317 318 319 319 319 320 321 321 321 320 321 320 321 322 323 324 324 323 322 319 320 319 323 318 317 320 321 321 322 322 321 323 323 322 321 321 320 320 320 320 316 318 317 315 313 312 310 311 311 310 308 306 308 309 306 307 307 307 306 307 307 304 301 303 298 303 304 303 302 302 301 301 300 300 300 300 300 300 301 300 299 300 300
315 313 315 316 317 318 318 319 320 319 320 320 320 322 323 321 321 321 320 321 322 320 316 317 315 314 317 317 318 317 318 319 320 319 319 319 318 317 317 317 316 315 314 315 313 310 310 310 310 310 309 307 305 306 307 310 307 307 306 305 302 300 300 302 302 301 298 293 293 296 299 298 298 297 298 299 299 299 299 301 301 299 298 299 299
309 312 313 314 315 317 316 317 318 318 319 319 320 321 321 322 322 321 319 317 318 315 311 309 312 314 317 316 317 316 314 313 314 313 312 313 311 315 315 314 314 314 311 312 311 309 307 309 309 309 308 309 309 309 309 308 308 307 306 304 304 302 300 301 303 302 297 292 291 291 290 292 293 294 294 296 297 297 298 299 298 296 297 299 300
306 306 306 308 311 313 314 315 317 317 318 318 319 320 321 319 321 320 320 316 313 310 314 313 314 315 316 315 314 312 311 310 310 310 310 310 310 310 309 309 307 307 306 306 305 305 305 304 302 301 301 304 306 307 307 306 306 306 305 303 302 302 300 297 295 299 298 297 292 290 290 288 287 288 291 291 292 294 296 295 295 297 298 298 299
296 297 301 305 308 311 313 314 316 316 315 317 318 319 320 320 321 320 319 316 314 314 314 314 314 315 314 312 311 310 309 308 307 306 307 307 307 306 306 303 301 300 302 304 303 303 301 300 299 300 301 301 301 301 300 300 301 301 301 302 301 299 298 297 296 297 295 291 290 289 289 289 288 288 288 289 292 292 292 293 294 296 297 297 298
Wind_Speed
3 2 2 4 3 2 8 11 11 10 8 9 9 9 10 10 11 11 12 13 14 15 15 14 14 15 14 14 14 14 14 15 16 15 14 14 13 13 13 13 13 13 13 15 16 17 18 18 18 18 17 17 19 19 19 18 17 17 17 17 17 18 18 18 18 18 17 16 17 16 16 15 15 16 16 16 16 16 13 15 13 10 7 12 18
4 2 1 1 4 3 6 6 11 10 9 8 8 10 10 11 11 12 12 12 14 14 14 14 14 14 14 14 13 12 14 15 14 14 14 14 14 14 13 13 13 12 12 13 16 16 17 17 17 17 16 17 17 18 18 18 18 17 17 17 17 17 17 17 17 17 17 17 18 17 16 17 16 16 17 15 18 18 14 15 15 8 6 16 17
1 1 0 1 3 5 4 7 6 9 9 8 8 9 10 11 12 12 11 12 13 12 14 14 13 13 13 13 13 14 13 13 14 14 14 14 14 14 15 15 14 14 13 14 15 16 16 17 18 17 16 16 16 16 17 17 17 17 17 17 17 17 17 16 16 16 16 16 15 15 13 14 16 16 16 17 19 17 14 15 16 15 9 17 15
2 1 1 1 3 5 7 5 8 9 9 8 8 9 9 11 11 12 12 12 12 13 14 14 14 13 13 13 13 13 15 14 14 14 14 14 14 14 15 14 14 15 15 15 16 16 16 17 17 17 16 14 14 15 16 16 16 16 16 16 16 16 16 16 15 15 15 15 15 12 6 7 9 16 17 17 17 15 14 15 16 16 17 15 15
3 0 1 2 4 5 6 8 10 8 9 9 9 10 10 11 11 12 12 12 12 11 12 13 14 13 13 12 13 14 13 14 14 14 14 14 14 14 14 14 14 14 14 15 16 15 16 17 17 17 16 14 15 16 16 16 16 16 16 16 15 15 15 15 15 14 13 13 11 7 6 6 5 13 15 17 16 13 13 14 14 15 14 15 15
3 1 2 3 4 4 6 8 9 8 9 9 10 11 11 10 11 12 12 13 11 11 12 12 12 13 13 13 13 13 14 14 14 14 14 14 14 14 13 14 14 14 14 14 15 15 15 16 17 16 15 14 13 14 15 16 16 15 15 14 14 14 14 14 13 13 11 11 10 6 6 6 5 6 15 15 15 13 13 14 14 12 12 13 12
4 1 3 3 3 2 4 8 9 9 9 10 11 11 10 9 11 11 11 12 12 11 11 12 14 14 13 12 12 12 11 12 15 14 13 13 13 13 14 14 14 14 13 13 14 14 15 15 16 16 15 14 13 13 14 15 14 14 14 14 14 13 13 13 12 12 11 7 5 5 5 6 5 4 13 12 13 13 13 13 12 12 12 12 13
3 3 3 3 1 2 6 8 9 10 10 11 11 11 10 10 10 11 11 12 12 11 9 14 14 12 12 12 11 14 14 15 14 13 14 13 13 13 13 14 13 13 12 13 13 13 14 15 15 16 16 15 13 12 14 14 14 13 13 13 13 13 12 12 12 11 11 6 5 5 5 5 4 3 11 13 13 13 12 12 11 11 12 12 8
4 3 3 2 1 4 6 8 10 10 11 11 11 11 11 11 11 10 10 11 11 11 9 11 12 12 12 12 12 11 12 13 13 12 12 11 12 12 12 12 13 13 12 12 12 12 13 14 15 15 17 16 14 13 14 14 14 13 13 13 12 12 11 11 10 10 6 4 4 5 4 4 4 4 10 11 13 13 12 8 7 10 11 10 11
3 3 3 2 2 4 5 8 10 11 11 12 11 11 12 11 10 11 11 11 11 11 9 10 12 12 12 11 11 11 12 11 12 11 11 11 12 12 11 12 12 12 12 12 11 11 12 13 14 16 17 17 15 14 13 13 13 12 12 12 11 11 10 10 10 7 4 4 4 5 5 6 4 3 8 10 12 11 11 10 8 8 8 10 11
4 4 3 3 3 4 7 7 6 9 11 11 12 11 12 11 10 11 11 11 10 10 10 10 10 10 12 11 11 11 12 12 11 11 12 12 13 13 13 12 13 12 12 11 11 10 11 11 13 15 16 16 16 14 13 12 12 11 11 11 10 10 9 9 7 4 4 4 4 4 5 8 4 3 9 10 11 10 5 5 8 10 11 11 11
5 3 3 3 3 6 8 6 6 9 10 11 12 11 12 11 11 11 11 12 11 10 10 10 10 11 11 9 11 12 11 11 12 12 12 12 11 12 12 12 12 12 11 12 11 10 10 11 12 14 16 15 15 15 13 12 11 11 10 10 10 9 8 8 5 4 4 4 4 4 4 4 4 4 10 10 10 9 8 10 12 12 11 11 11
5 4 3 2 2 7 8 7 7 8 9 10 11 11 11 11 11 10 10 11 10 10 10 10 9 10 11 10 10 11 10 11 11 11 10 10 10 11 11 11 11 11 12 11 12 10 10 10 12 14 15 15 15 14 14 12 11 11 10 9 9 8 8 7 4 4 4 4 3 4 4 4 4 8 9 10 10 7 8 9 9 9 9 9 10
7 4 3 3 2 6 8 7 7 8 7 9 10 9 10 11 11 10 10 9 8 11 10 9 8 11 10 9 9 10 10 11 10 10 10 9 10 10 11 10 10 10 10 11 10 10 10 10 11 13 14 13 14 14 13 12 11 10 9 9 8 8 7 5 5 3 3 3 3 3 4 4 4 8 8 8 10 9 8 9 8 8 10 10 9
7 6 3 3 3 4 8 9 8 8 7 8 10 10 9 10 11 11 11 10 9 10 10 9 7 8 11 10 9 9 10 10 10 11 11 10 9 9 9 9 10 11 10 11 11 11 11 10 11 12 12 12 12 12 12 12 12 11 10 9 8 7 6 3 3 3 3 3 3 4 4 4 8 10 8 7 10 9 7 5 6 8 7 7 8
6 6 4 3 3 3 4 7 8 8 8 8 9 9 9 10 10 11 11 11 10 9 10 11 10 5 9 11 11 9 10 10 11 11 11 10 9 9 8 9 10 9 9 9 10 10 10 11 11 11 11 12 11 11 11 11 11 11 10 8 7 6 6 4 3 3 3 4 4 3 4 4 9 9 7 6 8 7 8 6 5 5 5 6 6
6 5 6 4 3 3 4 4 6 10 9 9 7 8 8 9 9 9 9 10 9 9 9 9 10 12 12 12 12 12 11 10 9 10 11 11 10 9 9 8 8 9 9 10 10 10 10 9 9 10 11 11 11 11 11 11 10 10 9 8 7 6 5 4 3 3 3 3 2 3 4 3 7 10 9 7 6 5 6 7 5 4 4 5 6
5 5 5 5 4 4 4 4 5 5 5 7 8 9 9 9 9 9 9 8 9 10 10 10 10 10 10 10 9 10 11 12 11 12 12 11 10 10 10 9 8 8 9 9 8 9 9 9 9 10 10 10 10 10 10 10 10 9 8 8 8 6 5 4 3 3 3 3 4 3 4 5 10 10 7 5 8 6 7 3 4 4 5 5 7
5 5 5 5 4 4 4 3 4 4 5 4 4 6 10 9 9 8 9 10 10 9 9 9 9 8 9 10 10 10 10 10 10 9 9 9 8 8 8 7 7 7 7 7 7 7 7 8 9 9 9 10 10 10 10 11 10 9 9 9 8 7 6 4 4 4 4 3 3 4 4 7 9 10 10 7 10 9 4 4 4 3 3 5 5
5 6 5 4 4 4 3 3 3 4 4 4 4 4 7 9 9 9 9 9 9 9 8 8 8 8 8 9 9 7 7 6 8 6 8 7 7 5 5 5 6 7 6 6 6 6 7 7 8 9 10 10 10 9 9 9 10 9 9 8 7 5 4 3 3 4 4 4 3 4 5 7 9 10 11 11 10 11 5 4 4 5 4 2 3
5 4 4 5 5 4 3 3 2 3 4 4 4 4 4 7 7 9 9 9 8 8 8 9 8 7 7 7 7 5 4 4 4 4 6 5 6 6 6 6 6 5 5 5 6 6 6 7 8 9 9 9 8 8 7 8 9 9 8 8 5 3 3 2 3 3 4 3 3 4 7 7 9 10 11 12 12 9 6 6 8 7 5 3 7
7 6 4 4 4 4 4 3 2 3 4 4 3 3 3 4 4 4 5 6 6 6 5 4 5 4 5 5 4 4 3 3 3 4 3 3 4 5 5 5 5 4 4 5 5 5 6 7 8 8 8 8 8 5 5 5 7 8 8 7 4 3 3 2 2 3 4 4 3 5 7 9 10 11 12 13 13 13 13 12 10 8 7 7 9
8 6 5 5 4 4 5 4 4 3 4 4 3 3 3 3 3 4 4 5 4 4 4 4 3 3 3 3 3 2 2 2 2 3 3 4 3 4 4 4 4 5 5 6 7 9 9 9 9 8 8 7 5 3 4 4 4 6 5 4 4 4 4 4 3 3 4 3 4 6 7 9 11 12 13 14 14 14 13 13 13 10 8 10 12
8 7 7 5 6 6 5 5 5 5 4 3 3 3 2 3 3 3 4 3 4 3 3 3 3 3 3 3 2 2 2 2 4 6 4 2 2 3 6 6 6 7 8 4 6 6 8 7 8 7 4 3 3 4 4 4 4 3 3 3 3 3 3 2 3 4 4 4 4 7 7 9 10 12 13 14 15 15 15 16 14 12 10 12 13
6 6 6 8 8 7 6 6 5 4 5 4 4 3 2 2 2 3 3 4 3 3 2 3 3 3 3 3 2 2 2 1 2 2 2 1 1 2 2 2 2 2 5 3 3 3 4 5 5 4 3 3 3 3 3 4 4 5 4 4 4 4 4 3 3 3 4 5 5 8 7 8 10 12 13 14 15 15 16 16 16 13 12 13 15
6 8 9 8 8 7 8 6 7 5 6 5 4 3 3 3 3 3 3 3 3 3 2 2 2 2 2 2 2 2 1 1 1 1 1 1 1 1 1 1 2 1 2 2 2 3 3 3 3 3 3 1 1 1 1 1 3 5 4 5 4 4 4 5 4 4 5 4 5 8 8 8 11 13 14 15 15 16 16 16 16 18 15 12 15
7 7 7 7 8 8 9 7 7 6 7 6 5 4 4 3 3 3 4 4 3 4 3 3 2 2 3 2 3 2 1 1 0 0 0 1 1 1 1 1 0 1 1 1 2 2 2 2 2 2 2 2 3 3 2 2 1 3 4 4 4 4 5 5 4 4 6 5 5 8 8 9 10 12 13 15 16 16 17 17 17 17 17 19 19
6 7 7 7 8 10 8 8 8 7 7 6 6 5 4 4 4 3 3 3 4 4 4 4 3 3 3 3 3 3 3 2 1 1 1 0 1 1 1 0 0 0 0 0 1 1 2 1 2 3 4 4 3 4 4 3 3 2 4 5 5 5 5 5 4 5 5 6 5 7 8 8 9 11 13 15 16 17 17 18 18 17 18 19 19
8 8 7 8 8 8 9 9 8 9 7 7 6 5 5 5 5 4 4 3 3 4 4 3 3 3 3 3 3 3 2 2 3 2 1 2 1 1 1 2 1 1 0 1 1 3 3 2 3 3 3 4 3 4 4 4 3 2 2 5 5 5 5 5 5 5 5 6 6 7 9 8 10 11 13 14 16 17 18 18 18 18 19 20 19
8 8 7 7 7 8 10 10 9 8 7 6 6 5 5 5 6 4 5 3 4 4 3 3 3 3 3 3 3 3 4 4 4 2 3 3 1 1 1 2 2 2 1 3 2 2 3 3 3 3 4 5 4 3 2 4 5 4 2 4 5 4 5 5 6 6 6 6 6 6 9 9 10 12 13 14 15 16 17 18 18 19 20 20 21
7 8 7 6 6 8 9 8 8 7 6 7 6 6 5 7 5 4 4 4 4 3 3 3 3 3 3 3 3 3 4 4 3 3 2 2 1 1 2 1 4 2 1 4 1 2 2 3 3 4 4 4 4 2 2 4 4 5 4 4 4 5 5 5 5 5 6 6 6 6 7 11 9 11 12 13 15 16 17 17 18 19 19 21 22
8 8 7 6 6 8 8 8 7 7 8 7 6 5 6 5 4 4 4 4 3 3 3 3 3 3 3 3 3 3 3 3 3 3 3 2 2 2 2 2 4 2 2 3 3 2 3 3 4 4 3 2 4 4 2 2 4 5 4 4 5 5 5 6 6 6 5 6 6 6 6 7 9 10 10 13 14 15 16 16 17 18 19 20 21
6 8 8 7 8 8 8 8 7 6 8 8 7 6 5 4 5 5 4 4 3 3 4 4 5 3 3 4 4 3 5 4 3 3 3 3 2 2 3 4 4 3 3 3 3 3 2 3 5 1 3 2 3 5 2 2 4 5 3 4 5 6 5 6 6 5 6 5 6 6 6 6 6 9 10 9 12 15 15 16 16 17 17 18 19
7 6 7 8 7 5 6 6 7 7 8 7 6 5 5 5 4 4 4 4 5 5 5 4 4 3 3 3 3 4 4 4 4 3 3 3 3 3 4 4 4 3 4 3 3 2 3 3 4 2 4 3 4 4 3 5 5 3 4 4 5 6 5 6 5 5 5 6 6 5 6 6 6 6 6 10 10 11 13 14 15 15 16 17 18
6 5 9 10 8 7 6 6 8 8 8 7 7 7 5 5 5 5 5 5 5 5 5 5 4 5 4 5 4 4 4 4 3 4 4 4 4 4 3 4 3 3 3 3 3 2 3 4 3 4 4 4 4 4 4 4 3 6 6 6 6 6 5 6 5 5 5 6 5 5 5 5 5 5 6 6 8 10 11 13 14 15 16 16 17
9 9 8 7 9 8 7 8 8 9 8 9 8 7 7 6 6 6 5 5 5 5 5 6 5 4 4 4 4 4 4 5 5 4 4 3 3 4 4 2 2 2 3 2 2 4 3 3 3 3 3 4 3 6 1 3 3 5 6 6 6 5 6 6 6 6 5 5 6 5 5 5 5 5 6 6 6 7 10 10 12 14 15 16 16
8 8 9 8 8 8 8 9 9 10 9 8 7 6 5 6 6 6 7 5 6 6 5 5 5 5 4 4 4 4 4 4 4 5 4 4 4 4 4 3 3 3 4 4 4 4 3 2 3 3 3 4 4 5 7 4 5 5 6 6 6 6 7 6 6 6 5 5 6 5 4 5 5 5 5 5 6 6 9 11 11 12 13 14 14
8 8 9 10 11 9 9 9 8 9 9 9 8 8 7 6 5 6 5 6 6 5 5 5 5 5 4 5 5 4 4 4 4 4 4 5 5 4 2 2 3 4 3 1 5 2 1 1 3 2 0 1 4 5 7 5 4 5 6 6 7 6 7 6 6 5 4 6 5 5 5 5 5 6 6 5 5 6 6 9 11 11 12 11 13
7 8 8 8 7 8 8 9 8 8 8 7 7 7 6 5 4 4 5 5 4 3 3 4 5 4 5 5 6 4 4 3 3 4 4 5 4 3 2 3 3 1 1 3 4 3 1 0 1 4 1 1 4 4 5 4 5 5 6 6 6 7 6 6 5 4 4 4 5 5 4 5 5 5 6 5 5 6 7 6 6 7 8 12 13
7 7 8 7 8 7 7 7 8 9 7 6 6 6 5 6 6 3 3 3 4 4 3 5 4 4 5 5 6 7 5 5 5 5 5 4 5 5 5 1 1 3 3 5 5 4 3 1 2 2 5 4 3 4 4 4 4 5 7 6 6 6 7 6 4 3 4 5 4 4 5 5 5 6 6 5 6 6 6 7 6 6 6 8 11
7 8 8 9 9 10 8 10 8 7 7 7 7 7 6 5 3 6 6 5 6 5 5 4 4 5 5 5 3 4 5 7 6 6 7 7 5 4 4 4 2 2 3 4 3 2 0 1 2 2 3 2 3 1 2 1 4 5 3 5 5 5 6 5 2 4 5 6 3 4 3 5 5 6 6 6 6 6 6 7 7 6 7 6 7
9 8 10 12 10 9 10 10 7 8 9 9 8 8 8 8 7 7 4 5 5 5 4 3 4 5 4 4 4 3 3 2 2 2 3 3 4 4 3 4 3 3 3 3 3 1 1 2 2 3 2 2 1 2 4 1 2 3 7 7 2 3 3 2 3 3 7 6 4 3 4 4 6 6 6 6 7 6 7 6 6 7 6 6 6
10 11 11 9 9 10 10 8 9 9 9 8 8 8 5 5 6 4 7 4 3 6 6 5 5 4 5 5 3 3 3 3 4 4 5 5 4 4 5 3 2 2 2 3 2 3 2 2 2 3 2 1 1 1 2 0 2 3 3 2 3 7 5 3 2 3 4 4 2 4 5 5 5 5 6 6 6 7 6 6 6 7 6 6 6
9 8 9 11 10 10 9 9 9 9 8 9 9 7 7 5 4 4 4 4 4 2 4 4 3 2 2 2 4 4 4 3 4 5 5 4 3 3 2 1 2 3 3 3 2 1 1 1 0 1 1 1 1 0 2 1 1 3 4 1 3 2 5 2 7 10 4 4 4 6 3 4 5 5 6 6 7 7 7 6 7 6 6 6 6
11 11 11 11 9 11 11 10 9 9 8 8 9 6 6 4 4 4 3 4 3 3 3 2 4 3 1 1 3 3 5 5 4 3 2 3 4 3 4 4 3 3 3 2 1 1 2 2 3 2 1 1 1 1 1 3 3 2 1 3 3 1 1 4 7 6 5 10 8 7 5 5 6 5 6 7 7 7 6 6 7 6 6 6 6
11 11 10 11 10 9 8 8 8 8 9 9 9 8 8 9 7 7 6 4 5 4 5 5 3 3 5 2 1 2 3 3 2 3 3 2 2 2 2 2 3 2 2 2 3 3 3 4 3 3 2 1 1 2 1 2 3 3 1 1 1 3 5 3 3 4 4 7 7 6 9 8 5 7 8 8 8 7 6 7 6 7 6 7 6
12 9 9 9 10 9 8 9 9 8 8 7 9 8 8 8 10 10 9 8 7 4 3 4 5 4 2 2 3 0 2 2 1 2 4 5 4 3 4 3 5 4 3 3 3 3 4 3 3 3 2 1 2 2 3 1 1 3 2 1 2 1 1 4 3 5 8 1 2 5 6 7 7 9 9 10 10 9 9 7 8 7 6 6 6
11 8 9 8 10 10 9 10 8 8 8 8 9 10 10 9 9 8 8 8 8 7 7 5 3 3 3 3 2 3 3 3 5 3 5 5 5 4 4 4 4 3 3 3 3 3 4 3 4 3 2 2 2 3 2 2 2 1 2 3 3 3 3 0 1 3 4 7 6 3 5 4 6 5 6 8 9 8 10 9 10 10 8 8 7
7 9 10 10 9 8 8 7 8 8 8 10 10 10 10 10 10 8 8 6 7 5 3 3 4 4 4 3 4 5 5 4 4 4 2 4 4 5 5 5 4 2 3 3 3 3 3 4 3 3 2 3 2 2 3 2 3 2 2 2 2 3 3 1 3 4 2 3 7 3 8 3 3 7 5 5 7 6 7 8 10 10 8 8 8
6 5 5 5 6 6 8 9 9 8 8 9 10 11 10 9 9 8 9 7 5 4 5 5 5 5 6 5 5 5 5 4 4 3 3 3 4 4 5 4 3 3 3 3 3 4 4 5 4 4 3 4 3 5 4 3 3 3 3 2 2 4 2 3 2 5 2 2 5 11 8 10 14 4 6 6 4 5 8 8 8 8 8 7 8
4 5 5 6 6 8 8 10 10 8 8 10 10 11 10 9 10 9 10 9 8 8 6 5 5 5 7 6 5 5 3 4 4 3 4 3 4 5 6 5 3 3 4 4 4 5 4 4 4 5 6 5 4 5 5 5 3 4 4 3 3 2 1 1 4 4 4 2 7 8 9 7 8 15 2 2 8 9 8 7 7 8 7 7 7
Wind_Direction
216 207 257 290 329 294 128 119 109 97 104 108 103 102 96 100 100 96 95 96 95 91 87 86 87 83 81 80 82 83 82 78 77 75 76 73 74 74 73 69 73 77 76 75 76 77 76 74 73 70 67 69 71 71 70 69 68 68 69 69 66 63 62 59 55 50 51 58 66 66 61 64 70 76 73 70 72 67 61 57 53 50 44 45 49
180 219 229 303 325 100 108 115 110 113 107 106 104 101 104 104 100 101 101 96 91 92 92 90 87 87 88 87 86 87 80 78 82 81 79 79 79 77 75 75 75 77 80 81 77 75 75 74 73 70 72 72 74 72 71 71 72 70 69 69 69 68 65 63 59 56 55 55 56 57 61 68 65 67 71 70 65 59 54 59 55 49 45 48 46
150 184 254 346 329 97 105 109 108 102 100 105 110 107 114 108 106 107 106 101 98 95 92 90 87 86 84 86 87 83 82 84 83 83 84 82 82 82 80 76 77 82 87 81 80 79 77 73 70 70 72 75 77 76 74 73 72 72 73 71 70 68 67 64 62 58 55 54 52 50 44 49 64 61 63 60 59 55 49 50 51 49 47 46 45
140 219 2 354 90 103 114 115 104 105 105 110 113 113 113 109 110 107 102 99 99 97 95 92 90 87 87 88 87 89 86 82 80 79 77 77 78 77 82 82 82 84 86 87 84 81 80 76 73 72 71 75 80 81 78 75 74 73 71 70 69 68 67 65 61 58 56 57 54 47 35 27 37 60 60 58 56 53 50 48 47 49 49 47 44
125 31 21 43 64 81 94 98 109 116 114 117 117 114 109 110 112 111 108 101 98 100 101 96 95 93 95 95 89 84 88 88 84 79 78 78 79 79 78 80 81 82 87 88 87 86 79 76 74 72 72 74 79 81 79 78 77 77 75 73 71 69 66 62 57 53 50 46 43 38 37 27 24 50 58 63 59 54 55 53 49 47 45 44 44
124 59 48 62 71 77 100 121 121 120 121 124 119 116 118 117 115 112 107 102 97 97 101 95 95 96 87 86 93 95 93 91 91 88 81 75 76 78 79 82 81 83 87 91 88 84 80 76 74 74 72 74 78 79 83 83 81 79 78 76 74 73 70 64 60 55 50 44 40 40 31 27 26 31 50 55 55 52 51 51 48 45 39 39 40
123 106 76 73 71 49 92 123 117 120 126 126 123 120 116 121 116 113 109 105 100 94 91 97 95 92 88 84 87 86 89 86 84 87 93 94 93 88 87 82 80 84 87 93 95 91 83 78 76 74 73 74 80 87 88 89 86 84 83 82 79 76 70 64 58 53 50 46 37 33 32 31 27 20 51 49 49 45 41 41 40 40 41 42 40
106 100 95 84 76 56 132 125 124 125 126 125 124 123 123 116 107 106 107 106 102 96 99 103 104 97 94 100 99 92 88 86 88 86 85 87 82 80 83 85 86 86 90 96 97 93 86 81 75 72 72 74 76 87 93 93 90 86 82 80 76 71 68 63 56 50 47 44 39 33 32 27 20 11 57 54 54 49 44 40 41 41 41 43 42
115 110 103 104 103 106 129 132 133 132 129 125 131 127 124 119 117 115 109 105 102 101 103 110 99 101 105 104 99 95 93 90 92 96 99 97 91 84 84 91 92 92 94 96 98 97 88 81 77 73 69 70 73 79 91 91 87 84 80 76 72 68 66 61 54 47 40 40 33 31 37 30 20 18 55 56 58 51 46 45 43 49 45 33 30
121 110 112 116 123 124 115 119 133 135 134 135 132 133 125 117 112 107 103 102 104 104 99 93 98 107 106 104 101 101 101 98 97 90 87 94 102 98 94 83 84 84 84 89 95 97 94 82 77 74 69 64 69 74 79 84 87 83 78 73 71 70 62 59 55 50 48 41 33 22 21 36 12 11 51 55 60 53 39 24 34 42 36 38 29
127 128 128 127 151 146 130 128 129 128 133 137 137 129 120 116 112 108 108 106 107 111 111 107 111 109 104 108 106 102 97 96 93 94 89 85 85 86 84 83 81 83 85 89 93 94 95 89 79 75 72 69 69 74 79 82 84 81 76 75 72 67 63 59 57 47 44 42 37 21 14 24 14 357 51 49 42 46 44 45 43 39 31 26 28
131 136 139 143 143 140 134 130 130 131 138 139 133 121 117 115 113 114 113 113 111 115 122 120 108 105 105 98 99 94 94 96 91 83 79 76 78 80 79 78 80 76 81 79 84 95 96 84 77 75 71 70 69 71 79 84 83 80 78 74 71 65 60 58 58 49 43 34 35 22 21 13 356 26 47 48 40 45 40 34 35 35 29 25 21
133 133 128 113 111 121 124 128 122 124 131 134 129 120 119 117 115 114 116 117 119 118 109 100 105 104 98 105 104 102 102 99 96 91 84 81 79 79 82 79 81 80 78 77 77 79 87 87 74 71 71 69 69 66 67 72 75 76 75 71 67 62 58 56 52 51 40 33 26 16 13 354 338 33 32 38 29 30 21 47 43 32 30 31 16
132 123 108 104 102 108 102 103 120 121 125 130 127 123 125 123 119 110 107 105 107 112 105 97 100 108 105 93 96 107 109 104 100 98 93 87 82 78 74 77 75 79 76 76 77 76 77 78 68 69 66 67 69 68 67 68 70 69 68 66 58 54 47 46 40 39 37 24 11 8 11 349 309 27 29 34 21 26 20 48 45 30 19 21 23
127 120 105 82 78 91 92 96 106 113 117 119 123 126 118 114 110 110 108 101 92 91 95 99 109 105 112 109 96 98 107 103 94 95 94 89 83 77 75 80 79 74 73 73 75 76 73 68 65 65 64 66 67 68 67 67 67 66 61 58 53 46 45 40 36 25 18 3 356 4 0 351 345 27 31 27 22 26 39 30 30 22 25 21 10
118 117 101 79 70 73 80 88 94 108 106 111 118 121 113 106 107 109 109 105 100 100 101 76 59 87 96 83 82 85 93 89 97 99 95 91 89 87 86 78 72 70 69 68 68 69 69 64 62 63 62 62 62 64 65 63 62 61 58 54 49 45 45 43 34 24 5 351 343 353 349 342 339 355 13 29 16 27 339 39 42 25 27 16 10
114 108 101 86 71 70 69 73 90 95 98 96 98 105 110 106 104 102 97 100 104 101 99 79 77 75 85 85 74 73 80 94 97 96 91 86 85 82 78 73 71 70 68 70 67 68 67 67 64 59 57 57 57 55 55 57 53 51 48 46 46 40 42 50 34 7 353 343 337 337 327 330 328 355 12 31 19 12 351 43 18 20 18 9 12
117 110 104 91 68 60 68 75 85 85 88 88 91 100 103 100 98 97 97 92 93 92 87 80 81 78 78 73 68 74 78 80 83 87 86 81 74 71 66 62 66 64 66 63 65 63 58 58 54 52 51 50 49 45 42 43 45 49 47 38 32 31 40 38 35 358 347 337 329 315 325 320 333 349 3 339 349 349 332 31 351 344 355 4 10
125 110 104 98 85 62 59 65 80 88 87 89 87 101 108 106 101 94 96 98 93 90 86 84 83 79 85 82 77 73 73 69 78 81 80 77 72 67 71 73 77 73 69 64 62 63 61 54 48 44 43 43 38 35 30 29 30 32 39 37 26 9 18 23 10 352 347 326 316 323 309 315 325 340 345 338 336 331 324 345 325 332 337 357 2
131 123 132 101 106 81 64 67 81 91 96 91 88 91 112 113 106 99 103 106 104 100 93 90 89 89 89 92 90 81 76 73 74 71 76 76 76 78 80 80 83 80 74 75 68 65 58 51 44 39 40 40 34 31 28 22 21 20 22 23 20 10 16 7 357 346 331 323 313 305 295 308 317 328 336 338 347 354 15 330 315 303 314 333 329
139 127 139 136 121 120 88 91 87 99 103 103 93 90 95 113 111 111 112 113 109 102 98 94 91 89 91 89 89 87 82 81 74 76 69 60 64 70 72 76 77 77 81 76 70 61 53 47 41 39 41 33 27 30 31 22 13 12 4 357 2 23 6 357 337 330 325 321 319 300 296 302 304 314 324 328 330 331 323 298 304 300 294 272 292
153 150 151 141 133 135 130 128 108 114 116 119 119 117 111 103 118 120 118 116 111 106 103 103 99 91 88 83 85 84 72 70 77 84 66 59 50 55 75 77 78 64 63 75 71 57 45 42 37 40 35 29 26 18 6 359 11 10 351 351 6 2 353 339 343 335 331 326 326 300 303 302 301 304 316 319 323 326 325 326 316 274 264 279 295
156 157 161 160 160 148 153 157 161 141 131 126 125 126 133 128 132 126 124 125 119 108 103 100 106 105 93 91 81 63 65 51 42 52 64 67 59 29 32 62 64 49 44 44 42 33 36 31 29 27 30 29 27 21 1 355 345 2 10 11 0 346 332 345 347 346 329 317 314 303 305 305 302 301 307 313 316 318 319 319 321 308 272 285 294
164 165 164 160 163 173 167 169 170 162 152 146 141 140 146 148 148 135 129 128 119 116 113 114 120 121 116 105 89 82 74 61 44 54 59 39 47 36 29 38 37 40 23 29 23 28 22 28 26 26 26 21 17 15 357 347 347 350 358 1 337 334 334 312 332 320 321 315 307 302 299 304 303 300 301 309 315 318 322 319 325 317 290 288 291
162 150 157 171 175 174 175 179 176 170 166 157 155 165 158 155 162 145 139 138 130 121 121 134 137 131 124 111 105 90 75 62 52 44 47 39 36 29 22 19 17 35 17 19 8 7 19 8 1 22 24 7 14 355 7 343 339 342 343 339 337 329 323 315 303 308 298 298 296 300 299 299 304 304 302 305 310 314 315 314 315 310 298 293 296
151 165 173 170 177 178 180 180 182 180 177 166 178 165 165 183 174 169 147 144 150 150 145 142 146 145 128 115 99 95 89 92 65 54 35 49 23 38 35 18 36 28 25 14 359 6 7 12 12 357 354 29 3 296 313 288 316 329 326 325 324 320 321 313 319 309 297 296 294 298 299 300 302 306 307 306 305 307 307 311 310 312 305 288 287
176 182 173 172 173 180 184 176 187 184 183 178 179 175 194 193 192 177 163 180 168 162 176 172 172 157 147 144 141 138 126 112 86 29 43 40 323 343 25 42 46 38 29 356 334 343 0 346 340 319 308 338 328 314 313 302 259 309 314 313 315 319 317 314 313 304 296 291 288 290 291 291 293 297 300 303 305 306 306 305 306 307 309 311 310
181 180 177 173 174 185 180 178 188 184 185 184 182 188 192 191 199 186 209 183 167 185 185 185 170 170 172 176 166 160 162 167 195 212 223 83 257 300 302 10 166 110 128 165 281 290 299 301 310 319 339 333 335 319 326 325 321 331 322 313 314 314 305 301 296 292 293 294 288 290 290 286 287 290 294 299 303 304 305 304 304 303 305 304 304
190 187 180 177 182 176 173 183 186 188 186 183 187 189 190 194 200 201 205 187 191 195 188 168 175 180 179 175 163 171 170 178 204 214 161 215 241 278 297 266 287 248 169 251 212 286 308 315 322 311 316 307 312 305 322 310 306 310 297 301 301 302 305 306 303 301 299 293 296 293 294 289 287 290 293 297 299 302 302 302 301 302 303 302 301
198 189 183 189 179 175 180 187 183 185 182 182 192 189 191 196 200 195 200 182 212 196 172 185 186 171 189 183 186 180 185 193 206 181 179 235 235 268 298 293 290 265 217 273 227 217 269 304 300 302 299 293 302 293 319 313 317 309 254 273 289 303 302 302 306 303 298 299 294 295 297 289 288 292 294 296 298 300 300 301 301 301 302 302 302
194 198 195 193 177 177 189 186 181 176 173 189 184 189 187 202 198 193 187 203 208 179 186 195 186 190 192 178 187 188 181 183 181 181 192 221 241 241 262 292 287 283 259 275 300 250 256 260 273 278 279 287 289 303 306 306 302 306 295 300 313 316 304 307 300 300 302 301 304 298 294 297 293 294 294 295 298 298 299 299 302 303 304 304 305
197 203 200 190 179 190 189 186 181 173 177 188 182 187 192 196 192 184 197 202 189 192 196 192 201 204 181 176 179 184 173 184 175 175 188 198 231 239 267 271 268 297 249 262 279 255 247 257 260 253 267 292 301 304 265 261 292 285 312 315 315 311 304 301 299 300 299 297 294 292 293 295 300 298 298 300 300 300 300 302 304 305 305 305 306
205 204 201 191 196 192 186 186 178 173 185 189 189 194 187 188 185 192 195 187 188 189 200 202 207 200 184 178 175 174 181 181 191 184 184 195 205 215 238 237 247 248 234 229 239 247 254 277 273 281 298 286 283 281 281 240 270 292 320 299 302 296 290 293 291 297 293 290 291 290 292 298 300 306 306 300 301 302 302 305 304 304 304 307 308
200 201 198 205 201 195 187 174 178 182 191 191 188 188 193 191 188 186 183 182 189 192 211 211 207 193 186 188 177 178 182 185 170 193 184 196 207 215 225 249 235 226 224 208 220 214 248 269 284 324 267 245 261 269 301 300 296 313 299 284 283 276 289 292 288 288 285 287 283 289 295 299 304 307 307 305 298 298 303 304 306 307 309 309 310
197 197 196 200 196 194 182 184 180 191 188 192 190 197 190 187 187 189 189 189 189 198 207 205 202 205 182 197 188 182 184 178 174 171 189 187 196 215 226 237 216 208 210 208 220 210 209 240 246 263 276 275 281 284 272 287 316 308 298 294 291 300 291 282 296 288 287 286 295 294 301 301 307 305 302 302 304 304 303 306 308 307 308 309 310
199 199 199 194 199 198 187 190 182 191 192 195 195 194 191 191 191 193 192 190 190 201 204 203 200 186 186 201 196 187 183 181 173 170 163 180 177 192 214 182 218 205 219 205 194 230 220 241 252 225 276 291 296 294 324 313 299 291 292 298 298 299 296 298 292 292 290 302 299 304 304 305 305 301 300 300 301 305 302 300 303 305 308 310 309
201 195 196 195 202 200 194 193 189 193 194 195 193 192 188 192 194 194 199 190 195 205 206 197 183 180 187 202 189 183 192 184 183 181 169 177 185 196 220 196 174 197 193 196 213 232 216 234 264 219 197 265 303 295 300 293 294 295 300 301 300 301 294 293 291 290 314 307 303 304 307 312 311 302 301 301 306 304 309 307 306 312 311 309 309
205 201 199 194 198 196 197 199 195 194 193 192 191 190 193 192 193 196 191 195 205 204 200 180 188 186 178 192 176 173 184 189 186 188 189 194 186 185 219 211 185 209 224 213 244 260 221 184 270 292 180 237 286 290 291 303 308 297 288 289 294 293 287 288 287 298 306 302 306 310 318 315 312 309 307 307 306 309 310 313 320 321 316 312 314
204 203 202 203 200 198 196 201 197 193 194 190 191 190 186 189 188 184 189 203 203 203 177 191 198 180 183 188 163 158 176 169 178 187 200 206 212 220 213 233 211 202 199 258 278 301 339 0 260 296 354 224 250 271 278 294 289 280 282 286 292 285 286 280 284 298 301 285 293 310 328 316 315 309 308 311 312 312 311 314 318 316 313 313 316
202 200 203 200 202 201 199 201 202 193 189 187 178 182 177 183 186 182 199 203 201 191 193 203 195 189 192 193 176 158 171 187 187 190 206 225 242 239 237 263 149 161 214 262 269 261 256 268 267 243 291 297 224 247 268 273 277 275 282 284 265 279 287 279 292 320 319 306 310 324 322 314 320 313 311 315 318 313 312 312 313 310 310 314 312
204 200 202 205 201 199 188 205 200 189 183 184 183 181 184 189 199 198 196 187 190 188 194 198 202 201 192 188 195 190 188 191 195 194 201 218 231 237 232 244 170 187 216 238 263 342 79 218 248 194 245 282 308 287 282 218 287 295 258 262 288 276 268 279 342 343 331 309 343 324 313 330 320 320 311 322 316 314 311 312 314 314 312 313 314
213 199 205 207 204 199 198 200 187 193 195 190 184 187 190 189 181 188 179 177 180 182 193 197 202 198 192 191 186 183 155 164 181 234 270 251 239 237 233 246 202 211 222 249 276 260 213 207 213 280 196 234 273 306 301 334 359 357 331 328 286 304 300 355 24 347 337 320 333 322 315 319 312 309 313 328 317 314 310 310 312 312 311 313 312
207 204 211 207 206 204 205 195 193 192 197 191 185 193 188 185 179 175 176 188 228 181 179 187 188 195 195 182 181 182 177 189 201 203 211 219 221 210 229 233 212 201 242 270 259 268 228 225 206 215 283 187 226 319 327 164 323 325 291 339 341 349 335 2 335 325 318 316 354 329 317 323 310 309 314 318 310 311 308 312 312 309 311 314 312
207 210 210 210 209 210 205 196 196 194 193 194 192 191 182 177 165 154 173 146 178 175 153 131 145 153 220 229 179 192 212 216 206 204 208 208 211 222 251 223 202 191 207 244 249 269 243 171 130 226 174 329 354 311 34 36 105 13 352 343 304 320 311 335 350 329 18 319 347 327 331 316 312 317 326 321 312 309 306 310 309 309 311 312 312
207 208 206 208 208 210 206 197 195 195 195 188 188 167 138 123 105 70 96 93 65 105 124 149 153 161 171 169 234 223 233 217 213 217 193 204 190 194 206 212 196 187 178 189 185 150 113 98 113 94 139 176 340 344 356 26 32 43 341 355 337 351 290 323 343 291 352 347 329 328 339 337 339 331 330 317 309 304 300 310 304 309 310 310 310
210 208 205 208 206 210 202 197 195 194 194 189 178 163 169 163 156 158 161 171 181 165 181 174 160 175 196 184 227 204 216 215 196 208 197 168 149 143 133 115 96 100 125 145 124 105 90 80 63 103 88 176 152 76 8 345 62 83 87 126 184 293 320 324 342 305 350 285 283 323 330 330 333 341 332 319 319 312 310 308 307 311 314 311 308
212 200 200 205 207 205 198 195 194 194 189 179 171 169 172 177 181 186 185 183 184 202 171 167 174 179 149 188 206 227 210 157 97 136 113 112 106 103 110 105 99 101 92 96 98 99 98 95 83 84 93 89 116 108 91 335 12 54 54 63 56 340 7 359 325 303 315 312 308 325 309 310 341 338 328 319 319 324 322 323 316 314 309 303 304
204 189 197 200 199 201 194 195 195 191 184 172 173 179 180 182 185 190 187 187 190 187 181 178 160 137 157 178 127 78 57 101 120 113 123 115 118 105 100 95 92 78 100 105 115 117 98 69 63 74 79 94 121 114 111 67 81 305 39 48 19 29 25 77 275 19 293 301 296 281 272 325 328 295 289 298 308 315 315 321 320 321 321 314 311
197 192 198 196 194 196 193 189 193 188 185 176 177 185 185 182 185 183 186 197 186 170 136 118 141 147 144 138 124 109 85 67 75 93 75 104 115 120 100 93 93 96 110 116 104 99 96 95 81 70 86 60 54 90 93 57 65 47 9 32 24 33 332 322 97 32 295 296 284 291 311 287 256 279 284 261 282 294 294 300 305 306 308 309 313
204 197 194 182 188 184 188 187 197 191 184 181 182 186 186 179 184 185 186 179 153 126 152 155 154 164 148 150 136 129 130 112 92 100 111 88 95 105 104 101 113 105 94 106 116 95 89 86 85 90 83 76 50 67 80 77 74 73 69 50 32 342 18 13 28 4 304 248 290 314 322 332 329 297 296 280 283 291 289 286 291 291 294 295 299
191 181 189 189 186 187 187 192 197 188 182 183 182 187 186 185 188 186 186 174 169 156 152 154 148 152 151 147 148 139 133 125 115 105 79 114 111 79 87 92 98 108 106 108 90 105 103 99 89 75 64 74 72 81 74 67 69 62 48 55 53 48 48 348 340 359 360 327 322 304 317 320 304 311 257 302 313 293 281 281 271 275 277 280 287